DELTA 1 DEB, 13538

Orbit data source: Space-Track

DELTA 1 DEB, 13538 is space debris in SSO originally from a launch on Thu, 29 Jul 1976 UTC launched from the Air Force Western Test Range (AFWTR). Debris objects in space refer to the collection of defunct objects orbiting the Earth. Examples of debris include non-operational satellites, rocket bodies, and fragments generated from explosions, collisions, or faulty payload assembly.

Loading next visibility...
Identifier
13538, 1976-077EL
Orbit
SSO
Country
Flag of USUS
Related business
Manufacturer
Unknown
Mission
Spacecraft
Bus & Motor
Unknown
Mass
Unknown
Launch date (UTC)
1976-07-29 (49 years ago)
Launch vehicle
Unknown
Launch site
Air Force Western Test Range (AFWTR)
Object type
Payload
Rocket body
Debris
Shape & HBR
Unknown shape, 0.1 m
Radar Cross Section
Small (<0.1 m²)

Expand to show TLE details & history
Last TLE update: 1 day ago

TLE from 1 day ago
0 DELTA 1 DEB
1 13538U 76077EL  25300.89539244  .00000039  00000-0  75011-3 0  9990
2 13538 102.0083 293.3070 0107341 150.4272 240.9074 12.22096657 17719
Epoch: 2025-10-27T21:29Z
TLE epoch observation values (Epoch: 2025-10-27T21:29:21.906Z)
Latitude
29.58438°
Longitude
-72.42726°
Altitude
1,629.04 km
Speed
7.041 km/s
True Right ascension
19h 05m 37s
True Declination
29° 27' 11"
Sunlit
Object was in daylight at epoch
Visualization orbit readout
Latitude
Unknown
Longitude
Unknown
Altitude
Unknown
Speed
Unknown
Apparent Right ascension
Unknown
Apparent Declination
Unknown
Sunlit
N/A
Visualization observer readout
Local Sidereal Time
23:41:06
Azimuth
Unknown
Elevation
Unknown
Doppler factor
Unknown
Orbital elements
Apogee altitude
1,666.455 km
Perigee altitude
1,495.586 km
Semi-major axis
7,959.158 km
Eccentricity
0.01073
Inclination
102.0083°
RAAN
293.307°
Arg. of periapsis
150.4272°
True anomaly
239.83958°
Mean anomaly
240.9074°
Eccentric anomaly
240.37279°
Mean motion
3.05663 °/min
Orbital period
117.78 mins
BSTAR
0.00075011
Loading maneuver chart data...
Computing Atmospheric mass density...
Loading historical data...
Loading historical data...
Loading historical data...
Loading historical data...
Loading historical data...
Loading historical data...
Loading historical data...

Documentation

Showing up to 5 results
|